Location: Oshawa
(43.9000°N, 78.8670°W)
Time: 11:41:15
(UTC-04:00)

Cosmos 1821 Rocket - Visible Passes

Search period start: 27 March 2015 00:00
Search period end: 06 April 2015 00:00
Orbit: 945 x 1006 km, 82.9° (Epoch: 26 March)

Date Brightness Start Highest point End Pass type
(mag) Time Alt. Az. Time Alt. Az. Time Alt. Az.
27 Mar 5.1 20:03:20 10° NNW 20:09:17 51° W 20:15:14 10° SSW visible
28 Mar 6.2 20:29:13 10° NNW 20:34:26 29° W 20:39:34 10° SW visible
29 Mar 7.4 06:33:17 10° ESE 06:35:50 13° E 06:38:43 10° NE visible
29 Mar 7.0 20:55:47 10° NW 20:59:28 16° W 21:02:52 10° WSW visible
01 Apr 7.6 06:05:22 10° E 06:06:42 11° E 06:08:26 10° ENE visible
01 Apr 6.9 20:26:04 10° NW 20:30:19 19° W 20:34:20 10° WSW visible
02 Apr 6.9 06:27:22 10° SE 06:31:38 21° E 06:36:07 10° NE visible
05 Apr 6.9 05:58:42 10° ESE 06:02:28 18° E 06:06:31 10° NE visible
05 Apr 7.6 20:23:48 10° WNW 20:26:08 12° W 20:28:02 10° W visible
